Stations météo

Publicité
Kempten, Allemagne (10946): Température de l'air & dewpoint: 16.09.2018 05:00:00 - 22.09.2018 05:00:00 (CEST)Kempten, Allemagne (10946): Température de l'air 5cm & Température de l'air -5cm: 16.09.2018 05:00:00 - 22.09.2018 05:00:00 (CEST)Kempten, Allemagne (10946): Température de l'air -20cm & Température de l'air -100cm: 16.09.2018 05:00:00 - 22.09.2018 05:00:00 (CEST)Kempten, Allemagne (10946): Vitesse du vent & gusts: 16.09.2018 05:00:00 - 22.09.2018 05:00:00 (CEST)Kempten, Allemagne (10946): Direction du vent: 16.09.2018 05:00:00 - 22.09.2018 05:00:00 (CEST)Kempten, Allemagne (10946): reduced air pressure: 16.09.2018 05:00:00 - 22.09.2018 05:00:00 (CEST)Kempten, Allemagne (10946): visibility: 16.09.2018 05:00:00 - 22.09.2018 05:00:00 (CEST)Kempten, Allemagne (10946): Ensoleillement: 16.09.2018 05:00:00 - 22.09.2018 05:00:00 (CEST)Kempten, Allemagne (10946): Quantités de précipitations: 16.09.2018 05:00:00 - 22.09.2018 05:00:00 (CEST)
Date & Time tt [°C] td [°C] tt 5cm [°C] tt -5cm [°C] tt -20cm [°C] tt -100cm [°C] ff [km/h] ff [knt] fx [km/h] fx [knt] dd ppp [hPa] vv [km] sd [min] rr [mm]
22.09.2018 05:00:00 10,1 7,0 9,3 13,6 17,6 17,6 6 3 19 11 W 1024,7 31 0 0,0
22.09.2018 04:00:00 9,5 8,1 9,8 13,9 17,9 17,6 9 5 19 11 S 1024,1 24 0 0,0
22.09.2018 03:00:00 10,1 8,5 9,8 14,2 18,2 17,6 6 3 15 8 SSW 1023,6 33 0 0,0
22.09.2018 02:00:00 9,9 8,2 9,8 14,5 18,5 17,6 8 4 21 12 SW 1023,7 36 0 0,0
22.09.2018 01:00:00 9,9 8,4 10,0 15,0 18,9 17,6 10 5 17 9 SSW 1023,3 31 0 0,3
22.09.2018 00:00:00 10,8 8,8 10,4 15,4 19,3 17,6 6 4 30 16 W 1022,1 9 0 0,8
21.09.2018 23:00:00 11,8 9,8 11,2 16,2 19,7 17,6 14 7 29 16 WNW 1020,8 6 0 2,4
21.09.2018 22:00:00 13,2 12,0 13,0 17,4 20,0 17,6 11 6 32 17 NW 1018,7 3,5 0 1,4
21.09.2018 21:00:00 18,1 13,6 17,1 18,8 20,3 17,6 8 5 18 10 WSW 1015,1 22 0 0,0
21.09.2018 20:00:00 18,0 13,6 16,1 19,2 20,5 17,6 6 3 37 20 SSW 1014,0 21 0 0,1
21.09.2018 19:00:00 21,0 12,4 18,7 20,3 20,6 17,6 19 10 41 22 W 1012,1 20 0 0,0
21.09.2018 18:00:00 23,0 11,4 22,0 21,4 20,5 17,6 11 6 30 16 W 1010,1 32 0 0,0
21.09.2018 17:00:00 23,4 11,8 22,6 22,4 20,3 17,6 8 4 21 11 W 1009,9 29 0 0,0
21.09.2018 16:00:00 24,4 11,2 24,9 23,1 19,9 17,6 12 6 36 19 W 1010,1 21 2 0,0
21.09.2018 15:00:00 24,8 10,4 25,5 24,5 19,3 17,6 12 7 36 20 W 1010,4 22 51 0,0
21.09.2018 14:00:00 25,4 10,0 27,2 23,5 18,6 17,6 14 8 34 18 W 1011,0 15 57 0,0
21.09.2018 13:00:00 25,6 9,4 27,5 22,3 18,0 17,6 15 8 34 18 WSW 1011,3 17 58 0,0
21.09.2018 12:00:00 25,8 9,9 28,6 20,8 17,4 17,6 11 6 27 15 WSW 1011,6 15 60 0,0
21.09.2018 11:00:00 22,4 12,4 22,9 17,6 17,1 17,6 7 4 14 7 S 1012,8 8 60 0,0
21.09.2018 10:00:00 18,3 11,4 18,8 15,6 17,1 17,6 5 3 14 8 S 1014,2 13 60 0,0
21.09.2018 09:00:00 15,8 10,4 13,9 14,5 17,2 17,6 5 3 17 9 SSE 1014,9 25 60 0,0
21.09.2018 08:00:00 13,1 10,1 10,9 14,0 17,4 17,6 6 3 12 7 SSE 1015,7 24 15 0,0
21.09.2018 07:00:00 11,3 9,6 9,1 14,0 17,7 17,6 5 3 11 6 SE 1015,9 21 0 0,0
21.09.2018 06:00:00 12,6 10,2 10,1 14,4 18,0 17,6 3 2 12 6 SSE 1015,8 27 0 0,0
21.09.2018 05:00:00 11,9 10,2 9,9 14,8 18,3 17,6 6 3 13 7 ESE 1016,3 20 0 0,0
21.09.2018 04:00:00 12,6 10,1 10,4 15,2 18,6 17,6 4 2 13 7 SE 1016,3 22 0 0,0
21.09.2018 03:00:00 14,2 10,8 11,2 15,6 18,9 17,6 6 4 16 9 SSE 1016,1 26 0 0,0
21.09.2018 02:00:00 14,4 11,1 11,7 16,0 19,2 17,6 8 4 16 9 SSE 1016,5 24 0 0,0
21.09.2018 01:00:00 14,0 11,4 11,7 16,4 19,6 17,6 8 4 16 9 SE 1017,0 22 0 0,0
21.09.2018 00:00:00 13,4 11,4 11,3 17,0 20,0 17,6 7 4 13 7 SE 1017,8 22 0 0,0
20.09.2018 23:00:00 13,5 11,8 11,8 17,6 20,4 17,6 9 5 11 6 ESE 1018,0 18 0 0,0
20.09.2018 22:00:00 14,0 11,7 12,3 18,5 20,8 17,6 7 4 10 5 ESE 1018,1 23 0 0,0
20.09.2018 21:00:00 15,2 12,3 13,2 19,5 21,1 17,6 5 3 10 6 E 1017,8 24 0 0,0
20.09.2018 20:00:00 17,5 13,1 15,1 20,9 21,3 17,6 7 4 10 6 E 1017,1 31 0 0,0
20.09.2018 19:00:00 22,0 12,8 19,5 22,9 21,3 17,6 2 1 5 3 E 1015,7 37 57 0,0
20.09.2018 18:00:00 25,4 8,7 26,2 24,3 21,0 17,6 3 2 9 5 NNE 1015,4 48 60 0,0
20.09.2018 17:00:00 26,4 8,9 27,7 25,6 20,5 17,6 4 2 13 7 ENE 1015,5 17 60 0,0
20.09.2018 16:00:00 26,2 8,7 29,4 26,0 19,9 17,6 5 3 14 8 N 1016,0 6 60 0,0
20.09.2018 15:00:00 25,9 9,4 28,6 26,0 19,2 17,6 4 2 14 7 WNW 1016,5 46 60 0,0
20.09.2018 14:00:00 25,2 8,7 28,7 24,7 18,4 17,6 3 2 16 8 ENE 1017,5 21 60 0,0
20.09.2018 13:00:00 24,3 11,2 27,1 22,4 17,6 17,6 5 3 15 8 NNW 1018,3 35 60 0,0
20.09.2018 12:00:00 23,0 9,1 24,4 20,2 17,1 17,6 2 1 8 5 WSW 1019,3 33 60 0,0
20.09.2018 11:00:00 20,2 10,9 20,9 17,3 16,8 17,6 5 3 10 6 SSE 1020,5 15 60 0,0
20.09.2018 10:00:00 17,5 10,7 16,3 15,1 16,7 17,6 6 4 16 9 SSE 1021,4 10 60 0,0
20.09.2018 09:00:00 14,8 9,9 13,9 14,1 16,9 17,6 9 5 15 8 SE 1022,1 14 60 0,0
20.09.2018 08:00:00 12,2 9,6 10,3 13,5 17,1 17,6 10 5 14 8 ESE 1022,7 18 16 0,0
20.09.2018 07:00:00 11,7 9,7 9,6 13,7 17,4 17,6 10 5 14 8 ESE 1022,7 22 0 0,0
20.09.2018 06:00:00 11,8 10,1 9,7 14,0 17,7 17,6 8 5 15 8 ESE 1022,5 15 0 0,0
20.09.2018 05:00:00 12,2 10,6 10,1 14,4 18,0 17,6 8 4 13 7 ESE 1022,4 19 0 0,0
20.09.2018 04:00:00 12,0 10,7 10,1 14,7 18,3 17,6 6 4 11 6 ESE 1022,6 18 0 0,0
20.09.2018 03:00:00 12,9 11,2 10,9 15,3 18,7 17,6 9 5 13 7 ESE 1022,2 20 0 0,0
20.09.2018 02:00:00 13,3 11,4 11,3 15,7 19,0 17,6 8 4 15 8 ESE 1022,2 19 0 0,0
20.09.2018 01:00:00 13,8 11,8 11,6 16,2 19,4 17,6 8 4 14 8 ESE 1022,3 20 0 0,0
20.09.2018 00:00:00 14,1 12,0 12,2 16,8 19,7 17,6 9 5 16 9 ESE 1022,5 20 0 0,0
19.09.2018 23:00:00 14,4 12,4 12,2 17,4 20,1 17,6 8 5 14 8 ESE 1022,4 22 0 0,0
19.09.2018 22:00:00 14,5 12,5 12,3 18,1 20,5 17,6 7 4 10 5 ESE 1022,3 19 0 0,0
19.09.2018 21:00:00 15,2 12,5 13,2 19,2 20,8 17,6 8 4 10 5 ESE 1021,8 23 0 0,0
19.09.2018 20:00:00 17,7 13,7 15,1 20,5 21,1 17,6 7 4 8 5 ESE 1020,6 28 0 0,0
19.09.2018 19:00:00 22,7 10,7 19,4 22,3 21,1 17,6 3 2 11 6 WNW 1019,1 37 58 0,0
19.09.2018 18:00:00 24,7 10,2 25,3 24,1 20,8 17,6 4 2 10 5 NNW 1018,1 14 60 0,0
19.09.2018 17:00:00 25,1 10,5 26,5 25,3 20,4 17,6 5 3 13 7 NNW 1018,1 20 60 0,0
19.09.2018 16:00:00 24,7 11,4 27,4 25,9 19,9 17,6 6 3 16 9 NNW 1018,5 37 60 0,0
19.09.2018 15:00:00 24,6 11,8 27,4 25,3 19,2 17,6 5 3 16 9 WNW 1018,6 41 57 0,0
19.09.2018 14:00:00 24,0 11,5 27,4 25,3 18,4 17,6 6 3 16 9 NNE 1019,1 20 60 0,0
19.09.2018 13:00:00 24,1 12,7 26,7 23,5 17,6 17,6 4 2 9 5 NW 1019,2 22 60 0,0
19.09.2018 12:00:00 22,3 12,1 25,3 20,8 17,1 17,6 4 2 8 5 SSW 1020,1 19 60 0,0
19.09.2018 11:00:00 20,4 12,6 21,2 17,8 16,7 17,6 5 3 14 7 SSW 1020,7 22 60 0,0
19.09.2018 10:00:00 18,4 12,4 19,1 15,8 16,6 17,6 9 5 15 8 SSE 1021,1 21 60 0,0
19.09.2018 09:00:00 16,1 12,0 14,7 14,7 16,7 17,6 6 4 12 7 S 1021,4 20 60 0,0
19.09.2018 08:00:00 13,0 11,5 11,4 14,1 16,9 17,6 5 3 10 5 ESE 1022,0 26 15 0,0
19.09.2018 07:00:00 13,6 11,4 11,2 14,5 17,0 17,6 2 1 13 7 E 1021,3 29 0 0,0
19.09.2018 06:00:00 14,4 11,3 12,7 14,9 17,1 17,6 8 4 14 8 SE 1020,5 30 0 0,0
19.09.2018 05:00:00 13,7 11,4 12,7 14,9 17,3 17,6 5 3 10 5 S 1020,8 29 0 0,0
19.09.2018 04:00:00 13,8 11,2 12,0 14,8 17,5 17,6 4 2 13 7 ESE 1020,8 35 0 0,0
19.09.2018 03:00:00 13,4 11,1 11,6 14,7 17,7 17,6 7 4 13 7 SSE 1020,9 30 0 0,0
19.09.2018 02:00:00 13,4 11,1 11,4 14,8 18,0 17,6 9 5 15 8 SE 1020,8 32 0 0,0
19.09.2018 01:00:00 13,6 11,4 11,6 15,2 18,3 17,6 7 4 16 9 SE 1020,5 33 0 0,0
19.09.2018 00:00:00 13,7 11,6 11,6 15,7 18,6 17,6 8 5 14 8 SE 1020,5 33 0 0,0
18.09.2018 23:00:00 14,2 12,3 12,5 16,2 19,0 17,6 7 4 15 8 SE 1020,2 25 0 0,0
18.09.2018 22:00:00 15,1 12,6 12,6 16,8 19,3 17,6 9 5 17 9 SE 1019,6 27 0 0,0
18.09.2018 21:00:00 14,8 12,8 12,7 17,6 19,5 17,6 5 3 9 5 SE 1018,9 26 0 0,0
18.09.2018 20:00:00 16,8 13,6 14,6 18,8 19,7 17,6 5 3 11 6 ESE 1017,9 21 0 0,0
18.09.2018 19:00:00 19,8 12,2 19,6 20,1 19,7 17,6 6 4 20 11 SSE 1016,8 33 33 0,0
18.09.2018 18:00:00 19,1 13,8 19,4 19,8 19,8 17,6 7 4 18 10 SSW 1017,2 22 2 0,1
18.09.2018 17:00:00 17,9 13,8 16,5 19,7 19,9 17,6 12 7 32 17 S 1017,8 16 0 0,0
18.09.2018 16:00:00 22,1 13,1 21,2 21,3 19,7 17,6 9 5 18 10 SW 1016,6 21 4 0,0
18.09.2018 15:00:00 23,5 12,2 23,4 22,4 19,2 17,6 8 4 21 11 WSW 1016,3 29 35 0,0
18.09.2018 14:00:00 25,1 10,2 28,2 23,9 18,5 17,6 10 6 24 13 W 1016,0 24 58 0,0
18.09.2018 13:00:00 25,0 11,4 27,1 22,9 17,8 17,6 5 3 21 11 W 1016,1 31 60 0,0
18.09.2018 12:00:00 23,9 12,1 25,6 20,5 17,2 17,6 6 4 15 8 SW 1016,4 32 60 0,0
18.09.2018 11:00:00 21,6 12,7 21,4 17,9 16,9 17,6 5 3 13 7 SSE 1017,3 18 60 0,0
18.09.2018 10:00:00 18,5 12,3 17,7 15,8 16,8 17,6 6 3 17 9 S 1018,1 22 60 0,0
18.09.2018 09:00:00 16,0 12,2 14,6 14,7 16,9 17,6 7 4 14 8 SSE 1018,7 24 60 0,0
18.09.2018 08:00:00 13,6 11,7 11,7 14,0 17,1 17,6 5 3 12 7 SE 1019,2 18 17 0,0
18.09.2018 07:00:00 13,0 11,7 11,1 14,1 17,4 17,6 6 4 15 8 SSE 1019,0 16 0 0,0
18.09.2018 06:00:00 12,3 11,6 10,1 14,3 17,7 17,6 6 3 10 6 ESE 1018,8 10 0 0,0
18.09.2018 05:00:00 11,9 11,3 10,4 14,7 18,0 17,6 5 3 9 5 ESE 1018,7 10 0 0,0
18.09.2018 04:00:00 12,7 12,1 10,8 15,1 18,3 17,6 4 2 10 5 SE 1018,6 13 0 0,0
18.09.2018 03:00:00 12,4 11,5 11,1 15,5 18,6 17,6 7 4 10 6 ESE 1018,7 7 0 0,0
18.09.2018 02:00:00 13,8 12,7 12,1 16,0 18,9 17,6 8 4 14 7 E 1018,4 12 0 0,0
18.09.2018 01:00:00 13,7 12,7 12,0 16,4 19,3 17,6 4 2 10 5 SE 1018,5 12 0 0,0
18.09.2018 00:00:00 14,1 13,2 12,5 17,0 19,6 17,6 7 4 11 6 ESE 1018,8 13 0 0,0
17.09.2018 23:00:00 14,2 13,0 12,7 17,7 20,0 17,6 5 3 9 5 E 1019,0 13 0 0,0
17.09.2018 22:00:00 15,0 13,5 13,6 18,5 20,3 17,6 4 2 6 4 E 1019,1 15 0 0,0
17.09.2018 21:00:00 16,7 14,5 14,1 19,3 20,7 17,6 3 1 6 3 N 1018,6 25 0 0,0
17.09.2018 20:00:00 18,3 14,7 15,5 20,6 20,9 17,6 3 2 8 5 E 1017,7 26 4 0,0
17.09.2018 19:00:00 22,3 13,4 20,2 22,2 20,9 17,6 6 3 10 6 E 1016,5 37 58 0,0
17.09.2018 18:00:00 23,7 11,5 25,8 23,7 20,7 17,6 3 2 11 6 E 1016,4 20 59 0,0
17.09.2018 17:00:00 24,0 12,4 26,7 24,1 20,3 17,6 6 3 13 7 E 1016,7 16 60 0,0
17.09.2018 16:00:00 24,3 12,1 27,1 24,1 19,8 17,6 4 2 18 10 NNW 1017,3 12 60 0,0
17.09.2018 15:00:00 23,5 11,1 27,2 23,9 19,2 17,6 7 4 16 9 NNW 1017,9 30 60 0,0
17.09.2018 14:00:00 23,3 12,7 26,3 23,3 18,5 17,6 6 3 16 9 N 1018,3 24 60 0,0
17.09.2018 13:00:00 23,1 11,9 25,9 22,2 17,9 17,6 6 3 15 8 NW 1018,6 31 60 0,0
17.09.2018 12:00:00 22,9 12,3 24,8 20,0 17,3 17,6 3 2 12 7 S 1019,1 42 60 0,0
17.09.2018 11:00:00 20,4 13,1 20,4 17,9 17,0 17,6 7 4 16 8 S 1020,3 20 60 0,0
17.09.2018 10:00:00 17,8 13,5 17,5 16,4 17,0 17,6 6 3 15 8 S 1021,4 15 55 0,0
17.09.2018 09:00:00 14,5 12,8 14,0 15,2 17,0 17,6 5 3 11 6 SSE 1022,6 21 0 0,0
17.09.2018 08:00:00 13,0 12,7 12,9 14,7 17,2 17,6 5 3 9 5 ESE 1023,1 9 0 0,0
17.09.2018 07:00:00 12,2 11,6 10,9 14,5 17,5 17,6 5 3 11 6 ESE 1022,9 8 0 0,0
17.09.2018 06:00:00 12,3 11,5 10,6 14,7 17,8 17,7 5 3 10 5 ESE 1022,4 9 0 0,0
17.09.2018 05:00:00 12,6 12,0 10,9 15,2 18,1 17,7 8 4 10 5 ESE 1022,0 6 0 0,0
17.09.2018 04:00:00 13,4 12,8 11,4 15,7 18,4 17,7 4 2 8 5 E 1022,0 8 0 0,0
17.09.2018 03:00:00 14,0 13,3 12,0 16,4 18,6 17,7 4 2 8 5 ESE 1021,9 8 0 0,0
17.09.2018 02:00:00 15,5 14,4 13,4 17,1 18,9 17,7 4 2 10 6 E 1021,6 13 0 0,0
17.09.2018 01:00:00 16,5 15,0 15,4 17,8 19,0 17,7 7 4 11 6 SE 1021,3 14 0 0,0
17.09.2018 00:00:00 16,8 15,5 15,9 18,1 19,2 17,7 5 3 10 6 SE 1021,3 10 0 0,0
16.09.2018 23:00:00 16,9 15,8 16,0 18,5 19,4 17,7 2 1 9 5 S 1021,4 11 0 0,0
16.09.2018 22:00:00 17,2 15,8 16,6 19,1 19,6 17,7 4 2 7 4 E 1021,4 12 0 0,0
16.09.2018 21:00:00 17,8 15,8 17,1 19,5 19,8 17,7 2 1 5 3 E 1020,8 20 0 0,0
16.09.2018 20:00:00 19,1 15,5 17,4 20,0 19,9 17,7 2 1 8 4 NW 1019,8 23 0 0,0
16.09.2018 19:00:00 21,0 14,8 19,6 21,0 19,9 17,7 4 2 11 6 NW 1018,9 26 3 0,0
16.09.2018 18:00:00 21,8 14,0 21,1 21,7 19,7 17,7 3 2 11 6 NW 1018,6 36 0 0,0
16.09.2018 17:00:00 22,8 13,3 23,7 22,7 19,3 17,7 5 3 10 6 NW 1018,3 38 29 0,0
16.09.2018 16:00:00 22,7 11,7 26,1 23,3 18,8 17,7 5 3 12 6 E 1018,6 19 58 0,0
16.09.2018 15:00:00 21,8 12,2 24,0 22,6 18,2 17,7 5 3 12 6 NNE 1019,4 50 59 0,0
16.09.2018 14:00:00 21,0 12,8 22,8 22,3 17,5 17,7 4 2 12 6 N 1020,0 30 59 0,0
16.09.2018 13:00:00 20,2 13,3 23,8 21,1 16,8 17,7 3 2 11 6 SW 1020,3 20 60 0,0
16.09.2018 12:00:00 17,5 12,7 21,9 18,6 16,3 17,7 4 2 10 6 SE 1021,9 24 60 0,0
16.09.2018 11:00:00 15,5 11,9 17,5 16,6 16,0 17,7 6 3 13 7 W 1022,8 14 33 0,0
16.09.2018 10:00:00 12,7 11,0 13,8 15,2 15,9 17,7 4 2 10 5 SW 1023,6 10 0 0,0
16.09.2018 09:00:00 12,3 11,1 13,1 14,3 15,9 17,7 5 3 13 7 ESE 1023,4 12 0 0,0
16.09.2018 08:00:00 11,1 10,4 11,8 13,7 16,0 17,7 6 3 12 7 SE 1023,8 6 0 0,0
16.09.2018 07:00:00 11,1 10,7 11,5 13,5 16,1 17,7 0 0 5 3 N 1023,8 2,5 0 0,0
16.09.2018 06:00:00 10,3 10,0 10,7 13,3 16,3 17,7 3 2 6 3 S 1024,0 0,8 0 0,0
16.09.2018 05:00:00 9,4 9,0 9,6 13,0 16,5 17,7 3 1 6 4 ESE 1024,8 0,4 0 0,0

tt = Température de l'air
td = dewpoint
tt 5cm = Température de l'air 5cm
tt -5cm = Température de l'air -5cm
tt -20cm = Température de l'air -20cm
tt -100cm = Température de l'air -100cm
ff = Vitesse du vent
fx = gusts
dd = Direction du vent
ppp = reduced air pressure
vv = visibility
sd = Ensoleillement
rr = Quantités de précipitations

stations d'obs. à proximité